Weather History for Fayetteville, AR

Change the Weather History Date:

Sunday, November 25, 2012

  Actual Average Record
Temperature  
Mean Temperature 50 °F 44 °F  
Max Temperature 64 °F 54 °F 78 °F (1965)
Min Temperature 37 °F 33 °F 11 °F (1950)
Degree Days  
Heating Degree Days 14 22  
Month to date heating degree days 415  
Since 1 July heating degree days 715  
Moisture  
Dew Point 28 °F    
Average Humidity 48    
Maximum Humidity 86    
Minimum Humidity 32    
Precipitation  
Precipitation 0.00 in 0.14 in 2.03 in (1952)
Month to date precipitation 3.56  
Year to date precipitation 44.60  
Sea Level Pressure  
Sea Level Pressure 29.96 in    
Wind  
Wind Speed 10 mph (SSW)    
Max Wind Speed 21 mph    
Max Gust Speed 25 mph    
Visibility 10 miles    
Events      
T = Trace of Precipitation, MM = Missing Value Source: NWS Daily Summary

Daily Weather History Graph

Daily Weather History Graph

Search for Another Location

Airport:

Trip Planner

Search our weather history database for the weather conditions in past years. The results will help you decide how hot, cold, wet, or windy it might be!

Date:

Astronomy

Nov. 25, 2012 Rise Set
Actual Time 7:03 AM CST 5:03 PM CST
Civil Twilight 6:35 AM CST 5:31 PM CST
Nautical Twilight 6:04 AM CST 6:03 PM CST
Astronomical Twilight 5:33 AM CST 6:33 PM CST
Moon 3:18 PM CST (11/25) 4:21 AM CST (11/25)
Length of Visible Light 10h 55m
Length of Day
10h 00m
Waxing Gibbous, 93% of the Moon is Illuminated
Nov 25
Waxing Gibbous
Nov 28
Full
Dec 6
Last Quarter
Dec 13
New
Dec 19
First Quarter

Hourly Weather History & Observations

Time (CST) Temp. Windchill Dew Point Humidity Pressure Visibility Wind Dir Wind Speed Gust Speed Precip Events Conditions
12:53 AM 39.9 °F 33.9 °F 21.0 °F 47% 30.05 in 10.0 mi SSW 9.2 mph - N/A   Clear
1:53 AM 41.0 °F 34.7 °F 21.0 °F 45% 30.03 in 10.0 mi SSW 10.4 mph - N/A   Clear
2:53 AM 42.1 °F 37.7 °F 21.0 °F 43% 30.01 in 10.0 mi SSW 6.9 mph - N/A   Clear
3:53 AM 44.1 °F 37.4 °F 21.0 °F 40% 30.00 in 10.0 mi SW 13.8 mph - N/A   Clear
4:53 AM 44.1 °F 37.4 °F 21.0 °F 40% 29.99 in 10.0 mi SSW 13.8 mph 21.9 mph N/A   Clear
5:53 AM 44.1 °F 37.1 °F 21.0 °F 40% 29.99 in 10.0 mi SSW 15.0 mph - N/A   Clear
6:53 AM 45.0 °F 38.9 °F 21.0 °F 39% 29.99 in 10.0 mi SSW 12.7 mph - N/A   Clear
7:53 AM 46.9 °F - 21.9 °F 37% 30.00 in 10.0 mi SSW 12.7 mph - N/A   Clear
8:53 AM 52.0 °F - 24.1 °F 34% 30.00 in 10.0 mi South 11.5 mph - N/A   Clear
9:53 AM 55.0 °F - 26.1 °F 33% 29.99 in 10.0 mi SSW 20.7 mph 25.3 mph N/A   Clear
10:53 AM 57.0 °F - 28.0 °F 33% 29.97 in 10.0 mi SSW 16.1 mph - N/A   Clear
11:53 AM 61.0 °F - 30.9 °F 32% 29.95 in 10.0 mi SSW 12.7 mph - N/A   Clear
12:53 PM 62.1 °F - 32.0 °F 32% 29.92 in 10.0 mi South 11.5 mph 18.4 mph N/A   Clear
1:53 PM 63.0 °F - 33.1 °F 33% 29.90 in 10.0 mi SSW 11.5 mph - N/A   Clear
2:53 PM 64.0 °F - 34.0 °F 33% 29.87 in 10.0 mi South 9.2 mph - N/A   Clear
3:53 PM 62.1 °F - 35.1 °F 37% 29.86 in 10.0 mi South 11.5 mph - N/A   Clear
4:53 PM 57.9 °F - 34.0 °F 41% 29.86 in 10.0 mi South 8.1 mph - N/A   Clear
5:53 PM 51.1 °F - 34.0 °F 52% 29.89 in 10.0 mi Calm Calm - N/A   Clear
6:53 PM 45.0 °F - 34.0 °F 65% 29.92 in 10.0 mi Calm Calm - N/A   Clear
7:53 PM 41.0 °F - 34.0 °F 76% 29.95 in 10.0 mi Calm Calm - N/A   Clear
8:53 PM 39.0 °F - 33.1 °F 79% 29.96 in 10.0 mi Calm Calm - N/A   Clear
9:53 PM 39.0 °F - 33.1 °F 79% 29.95 in 10.0 mi Calm Calm - N/A   Clear
10:53 PM 37.0 °F - 32.0 °F 82% 29.95 in 10.0 mi Calm Calm - N/A   Clear
11:53 PM 37.0 °F - 33.1 °F 86% 29.95 in 10.0 mi Calm Calm - N/A   Clear